STARLINK-11127, 60119

Orbit data source: Space-Track

STARLINK-11127, 60119 is a payload satellite owned by SpaceX/Seattle (US) in LEO that was launched on Mon, 24 Jun 2024 UTC via an FALCON 9 launch vehicle from the Air Force Western Test Range (AFWTR). Payload-class satellites include a variety of spacecraft equipped with specific instruments for various scientific and technological missions. These include communications satellites like Starlink; space stations such as the ISS; scientific satellites like the Hubble; Earth observation satellites from companies like Planet Labs, Umbra, and HawkEye 360; GPS; miniature CubeSats for education and research; and military/defense satellites.

Loading next visibility...
Identifier
60119, 2024-118G
Orbit
LEO
Last TLE update
12 hours ago
Origin
Manufacturer
SpaceX/Seattle
Mission
Operational Commercial Communications
Bus & Motor
STARLINK V2M, Unknown motor
Mass
730 kg wet, ~700 kg dry
Launch date (UTC)
2024-06-24 (1 year ago)
Launch vehicle
FALCON 9
Launch site
Air Force Western Test Range (AFWTR)
Object type
Payload
Rocket body
Debris
Shape & HBR
Box + 2 Pan, 29 m
Radar Cross Section
33.884 m², Large (>1 m²)

Expand to show TLE details & history

TLE from 12 hours ago
0 STARLINK-11127
1 60119U 24118G   25191.61882295 -.00000538  00000-0  40557-6 0  9996
2 60119  53.1596 334.5611 0000328  43.3164 316.7880 15.69708484 59970
Epoch: 2025-07-10T14:51Z
TLE epoch observation values (Epoch: 2025-07-10T14:51:06.302Z)
Latitude
-0.00002°
Longitude
-176.99768°
Altitude
360.485 km
Speed
7.694 km/s
True Right ascension
22h 18m 14s
True Declination
0° 00' 00"
Sunlit
Object was in full shadow at epoch
Visualization orbit readout
Latitude
-27.77039°
Longitude
157.42388°
Altitude
367.989 km
Speed
7.689 km/s
Apparent Right ascension
23h 27m 37s
Apparent Declination
-45° 22' 23"
Sunlit
Object is in full shadow
Visualization observer readout
Local Sidereal Time
15:12:11
Azimuth
116.804° SE
Elevation
-49.188°
Doppler factor
1
Orbital elements
Apogee altitude
360.213 km
Perigee altitude
359.771 km
Semi-major axis
6,738.129 km
Eccentricity
0.00003
Inclination
53.1596°
RAAN
334.5611°
Arg. of periapsis
43.3164°
True anomaly
Unknown
Mean anomaly
316.788°
Eccentric anomaly
Unknown
Mean motion
3.92405 °/min
Orbital period
91.74 mins
BSTAR
4.0557e-7
Loading maneuver chart data...
Loading SW <> Apogee altitude chart data...
Loading historical data...
Loading historical data...
Loading historical data...
Loading historical data...
Loading historical data...
Loading historical data...
Loading historical data...

STARLINK-11127 Visibility forecast

Observer location: undefined°, undefined°

Span
Click to sort rows by Start time (UTC) header in descending order
Start Az.
Max El. time (UTC)
Max El. Az.
Max El.
End time (UTC)
End Az.
5 mins2025-07-11 12:26:33.165Z240.834° WSW2025-07-11 12:28:33.165Z307.208° NW42.23°2025-07-11 12:31:33.165Z45.001° ENE
4 mins2025-07-11 18:51:33.165Z316.417° NNW2025-07-11 18:53:33.165Z74.979° E43.148°2025-07-11 18:55:33.165Z123.204° SE
|